Rifle, CO

5:37 PM MDT on March 24, 2017 (GMT -0600)
Garfield County Regional

Weather History for KRIL - September, 2013

Change the Weather History Date:

Thursday, September 12, 2013

  Actual Average Record
Temperature  
Mean Temperature 67 °F 63 °F  
Max Temperature 80 °F 80 °F 98 °F (1990)
Min Temperature 53 °F 46 °F 30 °F (1951)
Degree Days  
Heating Degree Days 0 3  
Month to date heating degree days 3 24  
Since 1 July heating degree days 3 31  
Cooling Degree Days 2 1  
Month to date cooling degree days 88 18  
Year to date cooling degree days 794 534  
Growing Degree Days 16 (Base 50)    
Moisture  
Dew Point 53 °F    
Average Humidity 58    
Maximum Humidity 93    
Minimum Humidity 23    
Precipitation  
Precipitation 0.13 in 0.05 in 1.76 in (1988)
Month to date precipitation 0.75 0.59  
Year to date precipitation 5.84 9.56  
Sea Level Pressure  
Sea Level Pressure 30.02 in    
Wind  
Wind Speed 6 mph (ESE)    
Max Wind Speed 29 mph    
Max Gust Speed 35 mph    
Visibility 10 miles    
Events Rain    
T = Trace of Precipitation, MM = Missing Value Source: NWS Daily Summary

Daily Weather History Graph

Daily Weather History Graph

Search for Another Location

Airport or City:

Trip Planner

Search our weather history database for the weather conditions in past years. The results will help you decide how hot, cold, wet, or windy it might be!

Date:

Astronomy

Sep. 12, 2013 Rise Set
Actual Time 6:49 AM MDT 7:23 PM MDT
Civil Twilight 6:22 AM MDT 7:50 PM MDT
Nautical Twilight 5:50 AM MDT 8:22 PM MDT
Astronomical Twilight 5:17 AM MDT 8:55 PM MDT
Moon 2:18 PM MDT (9/12) No Moon Set
Length of Visible Light 13h 28m
Length of Day
12h 34m
Waxing Crescent, 51% of the Moon is Illuminated
Sep 12
Waxing Crescent
Sep 19
Full
Sep 26
Last Quarter
Oct 4
New
Oct 11
First Quarter

Hourly Weather History & Observations

Time (MDT) Temp. Dew Point Humidity Pressure Visibility Wind Dir Wind Speed Gust Speed Precip Events Conditions
12:53 AM 61.0 °F 57.0 °F 87% 30.04 in 10.0 mi Calm Calm - N/A   Clear
1:53 AM 60.1 °F 55.9 °F 86% 30.05 in 10.0 mi Calm Calm - N/A   Scattered Clouds
2:53 AM 59.0 °F 55.9 °F 90% 30.06 in 10.0 mi East 5.8 mph - 0.00 in Rain Light Rain
3:53 AM 59.0 °F 55.9 °F 90% 30.06 in 10.0 mi South 3.5 mph - 0.01 in   Partly Cloudy
4:53 AM 57.0 °F 55.0 °F 93% 30.06 in 10.0 mi East 3.5 mph - N/A   Clear
5:53 AM 55.9 °F 54.0 °F 93% 30.06 in 10.0 mi SE 4.6 mph - N/A   Clear
6:53 AM 54.0 °F 51.1 °F 90% 30.08 in 10.0 mi SE 4.6 mph - N/A   Clear
7:53 AM 55.9 °F 52.0 °F 87% 30.10 in 10.0 mi Calm Calm - N/A   Clear
8:53 AM 60.1 °F 53.1 °F 78% 30.09 in 10.0 mi Calm Calm - N/A   Partly Cloudy
9:53 AM 64.9 °F 55.0 °F 70% 30.08 in 10.0 mi Calm Calm - N/A   Scattered Clouds
10:53 AM 68.0 °F 54.0 °F 61% 30.06 in 10.0 mi Calm Calm - N/A   Clear
11:53 AM 73.0 °F 55.0 °F 53% 30.01 in 10.0 mi NNW 4.6 mph - N/A   Clear
12:53 PM 75.9 °F 54.0 °F 46% 29.97 in 10.0 mi WNW 3.5 mph - N/A   Clear
1:53 PM 77.0 °F 42.1 °F 29% 29.95 in 10.0 mi WSW 6.9 mph - N/A   Mostly Cloudy
2:53 PM 79.0 °F 37.9 °F 23% 29.94 in 10.0 mi WSW 9.2 mph - 0.00 in   Mostly Cloudy
3:53 PM 78.1 °F 51.1 °F 39% 29.92 in 10.0 mi West 13.8 mph - N/A   Clear
4:49 PM 71.6 °F 53.6 °F 53% 30.12 in 10.0 mi East 16.1 mph 26.5 mph N/A   Mostly Cloudy
4:53 PM 73.0 °F 53.1 °F 49% 29.95 in 10.0 mi East 20.7 mph 27.6 mph N/A   Mostly Cloudy
5:53 PM 73.9 °F 50.0 °F 43% 29.93 in 10.0 mi ENE 6.9 mph - N/A   Clear
6:53 PM 72.0 °F 51.1 °F 48% 29.94 in 10.0 mi Variable 3.5 mph - N/A   Partly Cloudy
7:53 PM 70.0 °F 51.1 °F 51% 29.94 in 10.0 mi ESE 3.5 mph - N/A   Clear
8:53 PM 66.9 °F 54.0 °F 63% 29.99 in 10.0 mi SE 18.4 mph 24.2 mph 0.00 in Rain Light Rain
9:53 PM 63.0 °F 55.9 °F 78% 30.01 in 10.0 mi ENE 9.2 mph - 0.02 in   Mostly Cloudy
10:53 PM 61.0 °F 55.0 °F 81% 30.03 in 10.0 mi East 6.9 mph - 0.03 in Rain Rain
11:53 PM 60.1 °F 57.0 °F 90% 30.00 in 10.0 mi NE 3.5 mph - 0.05 in Rain Light Rain